Tyler, TX

8:52 PM CDT on April 26, 2017 (GMT -0500)
Tyler Pounds

Weather History for KTYR - January, 2011

Change the Weather History Date:

Sunday, January 23, 2011

  Actual Average Record
Temperature  
Mean Temperature 48 °F 46 °F  
Max Temperature 59 °F 56 °F 85 °F (1943)
Min Temperature 36 °F 37 °F 6 °F (1940)
Degree Days  
Heating Degree Days 17 19  
Month to date heating degree days 527 437  
Since 1 July heating degree days 1312 1338  
Cooling Degree Days 0 0  
Month to date cooling degree days 0 0  
Year to date cooling degree days 0 0  
Moisture  
Dew Point 41 °F    
Average Humidity 75    
Maximum Humidity 93    
Minimum Humidity 57    
Precipitation  
Precipitation 0.04 in 0.11 in 3.60 in (1938)
Month to date precipitation 4.04 2.25  
Year to date precipitation 4.04 2.25  
Snow  
Snow 0.00 in - - ()
Month to date snowfall 1.4  
Since 1 July snowfall 1.4  
Snow Depth 0.00 in    
Sea Level Pressure  
Sea Level Pressure 30.03 in    
Wind  
Wind Speed 8 mph (SW)    
Max Wind Speed 21 mph    
Max Gust Speed 26 mph    
Visibility 7 miles    
Events Rain    
T = Trace of Precipitation, MM = Missing Value Source: NWS Daily Summary

Daily Weather History Graph

Daily Weather History Graph

Search for Another Location

Airport or City:

Trip Planner

Search our weather history database for the weather conditions in past years. The results will help you decide how hot, cold, wet, or windy it might be!

Date:

Astronomy

Jan. 23, 2011 Rise Set
Actual Time 7:20 AM CST 5:46 PM CST
Civil Twilight 6:54 AM CST 6:12 PM CST
Nautical Twilight 6:24 AM CST 6:42 PM CST
Astronomical Twilight 5:55 AM CST 7:11 PM CST
Moon 10:26 PM CST (1/23) 9:37 AM CST (1/23)
Length of Visible Light 11h 17m
Length of Day
10h 25m
Waning Gibbous, 80% of the Moon is Illuminated
Jan 23
Waning Gibbous
Jan 26
Last Quarter
Feb 2
New
Feb 11
First Quarter
Feb 18
Full

Hourly Weather History & Observations

Time (CST) Temp. Windchill Dew Point Humidity Pressure Visibility Wind Dir Wind Speed Gust Speed Precip Events Conditions
12:53 AM 41.0 °F 34.3 °F 30.0 °F 65% 29.96 in 10.0 mi SSE 11.5 mph - N/A   Clear
1:53 AM 41.0 °F 35.2 °F 30.9 °F 67% 29.96 in 10.0 mi SSE 9.2 mph - N/A   Clear
2:53 AM 39.0 °F 32.3 °F 30.0 °F 70% 29.96 in 10.0 mi SSE 10.4 mph - N/A   Clear
3:53 AM 39.0 °F 31.8 °F 30.9 °F 73% 29.96 in 10.0 mi SSE 11.5 mph - N/A   Clear
4:53 AM 39.0 °F 33.4 °F 32.0 °F 76% 29.96 in 10.0 mi South 8.1 mph - N/A   Clear
5:53 AM 37.9 °F - 33.1 °F 83% 29.99 in 10.0 mi Calm Calm - N/A   Clear
6:53 AM 37.9 °F 32.7 °F 34.0 °F 86% 30.01 in 10.0 mi SE 6.9 mph - N/A   Clear
7:53 AM 37.0 °F 31.6 °F 34.0 °F 89% 30.04 in 8.0 mi SSE 6.9 mph - N/A   Clear
8:38 AM 39.2 °F 32.5 °F 35.6 °F 87% 30.04 in 10.0 mi SSE 10.4 mph - N/A   Mostly Cloudy
8:53 AM 42.1 °F 36.6 °F 36.0 °F 79% 30.06 in 10.0 mi South 9.2 mph - N/A   Overcast
9:07 AM 42.8 °F 36.2 °F 37.4 °F 81% 30.05 in 10.0 mi SSE 12.7 mph - N/A   Overcast
9:53 AM 46.0 °F 41.0 °F 37.9 °F 73% 30.06 in 10.0 mi SSE 10.4 mph - N/A   Overcast
10:53 AM 51.1 °F - 41.0 °F 68% 30.06 in 10.0 mi South 12.7 mph - N/A   Overcast
11:53 AM 55.0 °F - 43.0 °F 64% 30.03 in 10.0 mi South 12.7 mph - N/A   Mostly Cloudy
12:53 PM 59.0 °F - 44.1 °F 58% 30.01 in 10.0 mi SSW 21.9 mph 26.5 mph N/A   Clear
1:53 PM 55.9 °F - 43.0 °F 62% 30.00 in 10.0 mi SSW 10.4 mph - N/A   Overcast
2:53 PM 55.9 °F - 45.0 °F 67% 29.99 in 9.0 mi SW 5.8 mph - 0.00 in Rain Light Rain
3:53 PM 50.0 °F - 48.0 °F 93% 30.01 in 5.0 mi NW 5.8 mph - 0.01 in Rain Light Rain
4:39 PM 50.0 °F - 46.4 °F 87% 30.02 in 2.5 mi NNW 4.6 mph - 0.01 in Rain Light Rain
4:49 PM 50.0 °F - 48.2 °F 94% 30.02 in 2.5 mi Calm Calm - 0.02 in Rain Light Rain
4:53 PM 50.0 °F - 48.0 °F 93% 30.02 in 3.0 mi Calm Calm - 0.02 in Rain Light Rain
5:16 PM 50.0 °F - 48.2 °F 94% 30.03 in 3.0 mi North 4.6 mph - 0.00 in Rain Light Rain
5:21 PM 50.0 °F - 46.4 °F 87% 30.03 in 2.5 mi North 4.6 mph - 0.00 in Rain Light Rain
5:26 PM 50.0 °F - 46.4 °F 87% 30.03 in 3.0 mi NNE 3.5 mph - 0.00 in Rain Light Rain
5:30 PM 48.2 °F - 46.4 °F 93% 30.03 in 3.0 mi North 4.6 mph - 0.00 in Rain Light Rain
5:42 PM 48.2 °F - 46.4 °F 93% 30.04 in 5.0 mi North 4.6 mph - 0.00 in   Overcast
5:53 PM 48.0 °F - 46.0 °F 93% 30.05 in 4.0 mi NNW 6.9 mph - 0.00 in   Overcast
6:02 PM 48.2 °F - 46.4 °F 93% 30.05 in 4.0 mi North 5.8 mph - 0.00 in Rain Light Rain
6:11 PM 48.2 °F - 46.4 °F 93% 30.06 in 5.0 mi NNW 5.8 mph - 0.01 in Rain Light Rain
6:53 PM 46.9 °F - 45.0 °F 93% 30.07 in 7.0 mi North 3.5 mph - 0.01 in   Overcast
7:53 PM 46.9 °F - 44.1 °F 90% 30.08 in 6.0 mi Calm Calm - N/A   Overcast
8:29 PM 46.4 °F - 44.6 °F 93% 30.09 in 5.0 mi Calm Calm - N/A   Overcast
8:53 PM 46.0 °F 44.8 °F 44.1 °F 93% 30.10 in 5.0 mi NW 3.5 mph - N/A   Overcast
9:53 PM 44.1 °F 41.5 °F 39.0 °F 82% 30.11 in 10.0 mi NNW 4.6 mph - N/A   Partly Cloudy
10:53 PM 42.1 °F 37.1 °F 37.0 °F 82% 30.11 in 10.0 mi North 8.1 mph - N/A   Clear
11:53 PM 37.9 °F 33.5 °F 33.1 °F 83% 30.12 in 9.0 mi NNW 5.8 mph - N/A   Clear